Location: Drummondville
(45.8830°N, 72.4830°W)
Time: 21:56:51
(UTC-05:00)

OTV 5 (USA 277) - Pass Details

Date: 12 November 2017
Orbit: 404 x 417 km, 43.0° (Epoch: 07 September)

Event Time Altitude Azimuth Distance (km) Brightness Sun altitude
Exits shadow 05:17:49 25° 231° (SW) 861 ? -15.5°
Maximum altitude 05:19:21 45° 171° (S) 558 ? -15.2°
Drops below altitude 10° 05:22:31 10° 98° (E) 1,456 ? -14.7°
Sets 05:24:39 0° 92° (E) 2,317 ? -14.3°
